Regional Weather Roundup
Issued by NWS Portland, ME

Home | Current Version | Previous Version | Text Only | Print | Product List | Glossary On
Versions: 1 2 3 4 5 6 7 8 9 10 11 12 13 14 15 16 17 18 19 20 21 22 23 24 25 26 27 28 29 30 31 32 33 34 35 36 37 38 39 40 41 42 43 44 45 46 47 48 49 50
000
ASUS41 KGYX 222205
RWRGYX
WEATHER ROUNDUP FOR MAINE AND NEW HAMPSHIRE
NATIONAL WEATHER SERVICE GRAY ME
600 PM EDT FRI AUG 22 2014

MEZ002-005-006-010-012-015-018-020-021-024-026-027-029-222300-
MAINE

CITY           SKY/WX    TMP DP  RH WIND       PRES   REMARKS
PORTLAND       CLOUDY    63  56  78 E8        30.13S
SANFORD        CLOUDY    64  54  68 E6        30.13S
BAR HARBOR     CLOUDY    68  57  68 CALM      30.12F
WISCASSET      CLOUDY    66  57  72 SE5       30.14S
ROCKLAND       MOSUNNY   66  57  72 E7        30.11F
FRYEBURG       CLOUDY    66  62  87 SE7       30.13S
LEWISTONAUBURN CLOUDY    63  57  82 S6        30.13S
AUGUSTA        CLOUDY    67  60  78 S5        30.13R
WATERVILLE     CLOUDY    70  55  60 CALM      30.09S
BANGOR         PTSUNNY   71  57  61 E6        30.13S
GREENVILLE       N/A     66  55  67 E5        30.15S
MILLINOCKET    CLOUDY    69  56  62 NE8       30.16S
HOULTON        PTSUNNY   68  58  70 CALM      30.14S
PRESQUE ISLE   CLOUDY    70  54  56 CALM      30.15S
FRENCHVILLE    CLOUDY    67  55  65 CALM      30.16F
CARIBOU        CLOUDY    70  56  61 CALM      30.15S
$$

NHZ002-005-008-009-011-012-014-222300-
NEW HAMPSHIRE

CITY           SKY/WX    TMP DP  RH WIND       PRES   REMARKS
PORTSMOUTH     PTSUNNY   66  58  76 E7        30.10S
ROCHESTER      CLOUDY    66  57  72 NE3       30.12S
NASHUA         PTSUNNY   68  61  78 SE7       30.11R
MANCHESTER     CLOUDY    68  60  75 E6        30.09S
CONCORD        CLOUDY    66  59  78 E5        30.11S
LACONIA        CLOUDY    64  55  72 E5        30.11S
PLYMOUTH       CLOUDY    64  64 100 CALM      30.12S
BERLIN         CLOUDY    68  59  73 CALM      30.13F
WHITEFIELD     CLOUDY    67  60  78 CALM      30.12F
JAFFREY        CLOUDY    63  60  90 CALM      30.13R
LEBANON        CLOUDY    65  62  90 MISG      30.11S FOG
MT WASHINGTON  FOG       45  45 100 E21         N/A  VSB 0
$$

VTZ005-007-008-222300-
VERMONT

CITY           SKY/WX    TMP DP  RH WIND       PRES   REMARKS
ST JOHNSBURY     N/A     64  62  93 MISG      30.11S
MONTPELIER     LGT RAIN  62  60  93 SE5       30.17R FOG
BURLINGTON     CLOUDY    67  61  81 SE5       30.10S
$$

MAZ007-012-024-CTZ003-RIZ002-NYZ038-NYZ072-222300-
SOUTHERN NEW ENGLAND AND NY

CITY           SKY/WX    TMP DP  RH WIND       PRES   REMARKS
BOSTON         PTSUNNY   69  62  78 NE12      30.09S
WORCESTER      CLOUDY    66  57  72 E9        30.10R
NANTUCKET      SUNNY     67  59  75 NE13      30.04S
PROVIDENCE     PTSUNNY   72  60  66 NE13      30.06R
HARTFORD       CLOUDY    70  62  76 N7        30.06R
ALBANY         LGT RAIN  68  61  78 CALM      30.07R
NEW YORK CITY  CLOUDY    68  61  78 VRB5      30.03S
$$

ANZ081-ANZ082-ANZ150-NHZ014-MEZ023>029-222300-
COASTAL MARINE OBSERVATIONS

STATION/POSITION TIME  TEMP    WIND        PRES    WAVE
                       AIR SEA DIR/SP/G            HT/PER
                 (UTC) (F)     (DEG/KT/KT) (MB)    (FT/S)
MATINICUS ROCK   2100           80/ 12/ 12 1019.5F
PORTLAND WX BUOY 2150   61 61   80/ 10/ 10 1019.8F   2/ 5
WELLS            2100   64 63   90/  6/  7 1019.0F
ISLE OF SHOALS   2100   63      50/ 11/ 12 1018.8F
JEFFREYS LEDGE   2121      67                N/A     3/ 7
CASHES LEDGE BUO 2150   64 68              1018.9S   4/ 7
$$

.............KEY..............
   WCI - WIND CHILL
   TC  - TEMPERATURE IN CELSIUS
   VSB - VISIBILITY IN MILES
   HX  - HEAT INDEX
   FAIR- INDICATES FEW OR NO CLOUDS BELOW 12,000 FT, WITH NO
         SIGNIFICANT WEATHER AND/OR OBSTRUCTIONS TO VISIBILITY.




USA.gov is the U.S. government's official web portal to all federal, state and local government web resources and services.